Thunderstorms From: 21-05-2018 15:00 Until: 22-05-2018 15:00 warning for: Thunderstorms Level: Yellow info button

Although rather usual in this region, locally or potentially dangerous phenomena are expected. (such as local winds, summer thunderstorms, rising streams or high waves) Be aware and pay attention to the latest weather updates, especially if you carry out activities exposed to weather or close to a stream or shoreline. 


Meteo18 Weather Cam more information Meteo18 Weather Cam


warning for Thunderstorms more information blitzortung!


Rain radar more information rain snow radar


Visit our other weather sites:

Template documentation
and downloads

And another site



Weather Underground History page Text

Daily Summary for February 12, 2017 Units:  Metric    English   Both
« Previous Day
Next Day »
Daily Weekly Monthly Yearly Custom
  High: Low: Average:
Temperature: -17.8 °C -18 °C -15 °C
Dew Point: -17.8 °C -19.1 °C -16.4 °C
Humidity: Humidity % 66 % 84 %
Wind Speed: 0 km/h 0 km/h 11.4 km/h
Wind Gust: 0 km/h - -
Wind:- - East
Pressure: 0 hPa 34405.1 hPa -
Precipitation: 50.8 mm    
Historical Graphs
 
 
Tabular Data for February 12, 2017
Time Temperature Dew Point Pressure Wind Wind Speed Wind Gust Humidity Rainfall Rate (Hourly)
-17.8 °C -17.8 °C 0 hPa Calm     Humidity % 0 mm
00:02 -17.7 °C -19.1 °C 34476.3 hPa NNE 10.3 km/h 23.3 km/h 84 % 0 mm
00:12 -17.7 °C -19.1 °C 34476.3 hPa NE 12.9 km/h 20.8 km/h 84 % 0 mm
00:17 -17.7 °C -19 °C 34476.3 hPa NE 12.9 km/h 20.8 km/h 84 % 0 mm
00:22 -17.7 °C -19 °C 34476.3 hPa NE 10.3 km/h 20.8 km/h 84 % 0 mm
00:32 -17.7 °C -19 °C 34476.3 hPa NNE 7.7 km/h 20.8 km/h 84 % 0 mm
00:37 -17.7 °C -19 °C 34476.3 hPa North 12.9 km/h 20.8 km/h 84 % 0 mm
00:42 -17.7 °C -19 °C 34476.3 hPa NNE 15.6 km/h 20.8 km/h 84 % 0 mm
00:47 -17.7 °C -19 °C 34476.3 hPa NE 15.6 km/h 23.3 km/h 84 % 0 mm
00:52 -17.7 °C -19 °C 34476.3 hPa NE 10.3 km/h 25.9 km/h 84 % 0 mm
00:57 -17.7 °C -19 °C 34476.3 hPa NE 12.9 km/h 25.9 km/h 84 % 0 mm
01:02 -17.7 °C -19 °C 34476.3 hPa NNE 10.3 km/h 23.3 km/h 84 % 0 mm
01:12 -17.7 °C -19 °C 34476.3 hPa NE 5.1 km/h 25.9 km/h 84 % 0 mm
01:17 -17.7 °C -18.9 °C 34476.3 hPa NE 12.9 km/h 25.9 km/h 85 % 0 mm
01:22 -17.7 °C -18.9 °C 34476.3 hPa NE 10.3 km/h 25.9 km/h 85 % 0 mm
01:27 -17.7 °C -18.9 °C 34476.3 hPa NE 10.3 km/h 23.3 km/h 85 % 0 mm
01:32 -17.8 °C -18.9 °C 34476.3 hPa North 15.6 km/h 23.3 km/h 86 % 0 mm
01:42 -17.8 °C -18.9 °C 34462.7 hPa NE 12.9 km/h 25.9 km/h 87 % 0 mm
01:47 -17.9 °C -18.8 °C 34462.7 hPa NE 10.3 km/h 25.9 km/h 88 % 0 mm
01:52 -17.9 °C -18.8 °C 34462.7 hPa NE 10.3 km/h 23.3 km/h 89 % 0 mm
01:57 -18 °C -18.9 °C 34476.3 hPa North 5.1 km/h 25.9 km/h 89 % 0 mm
02:02 -18 °C -18.9 °C 34462.7 hPa NNE 20.8 km/h 25.9 km/h 89 % 0 mm
02:07 -18 °C -18.9 °C 34462.7 hPa NE 20.8 km/h 25.9 km/h 89 % 0 mm
02:17 -18 °C -18.9 °C 34462.7 hPa NE 20.8 km/h 25.9 km/h 89 % 0 mm
02:22 -17.9 °C -18.8 °C 34462.7 hPa NNW 12.9 km/h 25.9 km/h 89 % 0 mm
02:32 -17.9 °C -18.8 °C 34462.7 hPa North 12.9 km/h 28.5 km/h 89 % 0 mm
02:37 -17.9 °C -18.8 °C 34462.7 hPa NNE 15.6 km/h 31.1 km/h 89 % 0 mm
02:42 -17.9 °C -18.8 °C 34462.7 hPa NE 23.3 km/h 31.1 km/h 89 % 0 mm
02:52 -17.9 °C -18.8 °C 34462.7 hPa NE 28.5 km/h 31.1 km/h 89 % 0 mm
02:57 -17.9 °C -18.7 °C 34462.7 hPa NW 5.1 km/h 33.6 km/h 90 % 0 mm
03:02 -17.9 °C -18.8 °C 34462.7 hPa North 20.8 km/h 33.6 km/h 89 % 0 mm
03:12 -17.9 °C -18.7 °C 34462.7 hPa NNE 7.7 km/h 33.6 km/h 90 % 0 mm
03:22 -17.9 °C -18.7 °C 34452.6 hPa NNE 18.2 km/h 33.6 km/h 90 % 0 mm
03:27 -17.9 °C -18.7 °C 34452.6 hPa NNE 31.1 km/h 41.4 km/h 91 % 0 mm
03:32 -17.9 °C -18.7 °C 34452.6 hPa NE 20.8 km/h 41.4 km/h 91 % 0 mm
03:37 -17.9 °C -18.7 °C 34462.7 hPa North 18.2 km/h 41.4 km/h 91 % 0 mm
03:42 -17.9 °C -18.7 °C 34462.7 hPa NE 23.3 km/h 41.4 km/h 91 % 0 mm
03:47 -17.9 °C -18.7 °C 34462.7 hPa NNE 12.9 km/h 33.6 km/h 91 % 0 mm
03:52 -17.9 °C -18.6 °C 34462.7 hPa NNE 20.8 km/h 31.1 km/h 92 % 0 mm
04:02 -18 °C -18.6 °C 34462.7 hPa NE 20.8 km/h 31.1 km/h 92 % 0 mm
04:12 -18 °C -18.6 °C 34452.6 hPa NE 20.8 km/h 28.5 km/h 93 % 0 mm
04:17 -18 °C -18.6 °C 34452.6 hPa NNE 18.2 km/h 36.2 km/h 93 % 0 mm
04:22 -18 °C -18.6 °C 34442.4 hPa NE 18.2 km/h 36.2 km/h 93 % 7.62 mm
04:27 -17.9 °C -18.5 °C 34442.4 hPa NNE 15.6 km/h 36.2 km/h 93 % 7.62 mm
04:32 -17.9 °C -18.5 °C 34452.6 hPa NNE 20.8 km/h 31.1 km/h 93 % 7.62 mm
04:37 -17.9 °C -18.5 °C 34452.6 hPa NNE 18.2 km/h 28.5 km/h 93 % 12.7 mm
04:42 -17.9 °C -18.5 °C 34442.4 hPa NE 23.3 km/h 28.5 km/h 93 % 20.32 mm
04:47 -17.9 °C -18.4 °C 34442.4 hPa NE 18.2 km/h 28.5 km/h 94 % 20.32 mm
04:52 -17.9 °C -18.4 °C 34442.4 hPa NNE 15.6 km/h 28.5 km/h 94 % 20.32 mm
04:57 -17.9 °C -18.4 °C 34442.4 hPa ENE 15.6 km/h 31.1 km/h 94 % 20.32 mm
05:02 -17.9 °C -18.4 °C 34442.4 hPa NNE 20.8 km/h 31.1 km/h 94 % 20.32 mm
05:07 -17.9 °C -18.4 °C 34442.4 hPa NE 18.2 km/h 28.5 km/h 94 % 20.32 mm
05:12 -17.9 °C -18.4 °C 34442.4 hPa NE 23.3 km/h 28.5 km/h 94 % 20.32 mm
05:17 -17.9 °C -18.3 °C 34442.4 hPa North 10.3 km/h 28.5 km/h 95 % 12.7 mm
05:27 -17.9 °C -18.3 °C 34442.4 hPa ENE 10.3 km/h 31.1 km/h 95 % 12.7 mm
05:32 -17.9 °C -18.3 °C 34442.4 hPa NNE 12.9 km/h 31.1 km/h 95 % 12.7 mm
05:37 -17.9 °C -18.3 °C 34442.4 hPa NNE 18.2 km/h 28.5 km/h 95 % 7.62 mm
05:42 -17.9 °C -18.3 °C 34442.4 hPa NE 18.2 km/h 28.5 km/h 95 % 7.62 mm
05:47 -17.9 °C -18.3 °C 34442.4 hPa NE 10.3 km/h 28.5 km/h 95 % 0 mm
05:52 -17.9 °C -18.3 °C 34442.4 hPa NNE 12.9 km/h 28.5 km/h 95 % 0 mm
05:57 -17.8 °C -18.2 °C 34442.4 hPa ENE 12.9 km/h 23.3 km/h 95 % 0 mm
06:02 -17.8 °C -18.2 °C 34442.4 hPa NNE 7.7 km/h 23.3 km/h 95 % 0 mm
06:07 -17.8 °C -18.2 °C 34442.4 hPa NNE 20.8 km/h 23.3 km/h 95 % 0 mm
06:12 -17.8 °C -18.2 °C 34442.4 hPa North 10.3 km/h 23.3 km/h 95 % 0 mm
06:17 -17.8 °C -18.2 °C 34442.4 hPa NNE 15.6 km/h 23.3 km/h 95 % 0 mm
06:22 -17.7 °C -18.1 °C 34442.4 hPa North 7.7 km/h 23.3 km/h 95 % 0 mm
06:27 -17.7 °C -18.1 °C 34442.4 hPa NNE 10.3 km/h 23.3 km/h 95 % 0 mm
06:32 -17.7 °C -18.1 °C 34442.4 hPa NE 12.9 km/h 18.2 km/h 95 % 0 mm
06:37 -17.7 °C -18.1 °C 34442.4 hPa NE 2.6 km/h 18.2 km/h 95 % 0 mm
06:42 -17.7 °C -18.1 °C 34442.4 hPa North 5.1 km/h 20.8 km/h 95 % 0 mm
06:47 -17.7 °C -18.1 °C 34428.8 hPa NNE 15.6 km/h 20.8 km/h 95 % 0 mm
06:52 -17.7 °C -18.1 °C 34428.8 hPa NNW 10.3 km/h 18.2 km/h 95 % 0 mm
06:57 -17.7 °C -18.1 °C 34442.4 hPa NNE 7.7 km/h 18.2 km/h 95 % 0 mm
07:02 -17.7 °C -18.1 °C 34442.4 hPa NE 7.7 km/h 20.8 km/h 95 % 0 mm
07:07 -17.7 °C -18 °C 34442.4 hPa NNW 2.6 km/h 20.8 km/h 96 % 0 mm
07:17 -17.7 °C -18 °C 34442.4 hPa NE 7.7 km/h 12.9 km/h 96 % 0 mm
07:22 -17.7 °C -18 °C 34442.4 hPa ENE 7.7 km/h 10.3 km/h 96 % 0 mm
07:37 -17.6 °C -17.9 °C 34442.4 hPa North 2.6 km/h 12.9 km/h 96 % 0 mm
07:42 -17.6 °C -17.9 °C 34442.4 hPa NNW 2.6 km/h 12.9 km/h 96 % 0 mm
07:47 -17.6 °C -17.9 °C 34442.4 hPa NNE 7.7 km/h 10.3 km/h 96 % 0 mm
07:52 -17.6 °C -17.9 °C 34442.4 hPa NNE 5.1 km/h 10.3 km/h 96 % 0 mm
07:57 -17.6 °C -17.9 °C 34442.4 hPa Calm   7.7 km/h 96 % 0 mm
08:02 -17.6 °C -17.9 °C 34442.4 hPa Calm   7.7 km/h 96 % 0 mm
08:12 -17.6 °C -17.9 °C 34442.4 hPa NNE 5.1 km/h 10.3 km/h 96 % 0 mm
08:17 -17.6 °C -17.9 °C 34442.4 hPa NNE 2.6 km/h 10.3 km/h 96 % 0 mm
08:22 -17.6 °C -17.9 °C 34442.4 hPa NNE 2.6 km/h 10.3 km/h 96 % 0 mm
08:32 -17.6 °C -17.9 °C 34452.6 hPa North 5.1 km/h 10.3 km/h 96 % 0 mm
08:37 -17.5 °C -17.8 °C 34452.6 hPa NNE 5.1 km/h 10.3 km/h 96 % 0 mm
08:42 -17.5 °C -17.8 °C 34452.6 hPa NNE 2.6 km/h 10.3 km/h 96 % 0 mm
08:47 -17.4 °C -17.8 °C 34452.6 hPa NNE 2.6 km/h 10.3 km/h 96 % 0 mm
08:52 -17.4 °C -17.8 °C 34452.6 hPa Calm   10.3 km/h 96 % 0 mm
08:57 -17.4 °C -17.8 °C 34452.6 hPa Calm   10.3 km/h 96 % 0 mm
09:02 -17.4 °C -17.7 °C 34452.6 hPa North 2.6 km/h 10.3 km/h 96 % 0 mm
09:12 -17.3 °C -17.7 °C 34452.6 hPa Calm   5.1 km/h 96 % 7.62 mm
09:17 -17.3 °C -17.5 °C 34452.6 hPa NE 2.6 km/h 7.7 km/h 97 % 7.62 mm
09:22 -17.3 °C -17.5 °C 34452.6 hPa NE 7.7 km/h 7.7 km/h 97 % 7.62 mm
09:27 -17.2 °C -17.4 °C 34452.6 hPa NNE 5.1 km/h 7.7 km/h 97 % 7.62 mm
09:32 -17.2 °C -17.4 °C 34452.6 hPa NNE 5.1 km/h 10.3 km/h 97 % 7.62 mm
09:37 -17.2 °C -17.4 °C 34452.6 hPa NNE 5.1 km/h 10.3 km/h 97 % 7.62 mm
09:42 -17.1 °C -17.3 °C 34452.6 hPa NE 2.6 km/h 10.3 km/h 97 % 7.62 mm
09:52 -17.1 °C -17.3 °C 34452.6 hPa NNE 5.1 km/h 10.3 km/h 97 % 7.62 mm
09:57 -17 °C -17.2 °C 34452.6 hPa ENE 7.7 km/h 10.3 km/h 97 % 12.7 mm
10:02 -16.9 °C -17.1 °C 34452.6 hPa NNW 5.1 km/h 12.9 km/h 97 % 12.7 mm
10:12 -16.7 °C -16.9 °C 34452.6 hPa NE 10.3 km/h 12.9 km/h 97 % 12.7 mm
10:17 -16.6 °C -16.8 °C 34452.6 hPa NNE 2.6 km/h 15.6 km/h 97 % 12.7 mm
10:22 -16.5 °C -16.7 °C 34442.4 hPa North 5.1 km/h 25.9 km/h 97 % 12.7 mm
10:32 -16.3 °C -16.6 °C 34452.6 hPa NE 5.1 km/h 25.9 km/h 97 % 20.32 mm
10:37 -16.2 °C -16.4 °C 34452.6 hPa NNW 5.1 km/h 18.2 km/h 97 % 20.32 mm
10:42 -16.1 °C -16.3 °C 34452.6 hPa North 2.6 km/h 15.6 km/h 97 % 20.32 mm
10:52 -15.9 °C -16.1 °C 34452.6 hPa NNE 12.9 km/h 15.6 km/h 97 % 25.4 mm
10:57 -15.8 °C -16.2 °C 34452.6 hPa ENE 5.1 km/h 15.6 km/h 96 % 20.32 mm
11:02 -15.7 °C -16 °C 34442.4 hPa NE 7.7 km/h 20.8 km/h 96 % 20.32 mm
11:12 -15.4 °C -15.8 °C 34442.4 hPa NE 5.1 km/h 20.8 km/h 96 % 12.7 mm
11:17 -15.4 °C -15.8 °C 34442.4 hPa NNE 5.1 km/h 20.8 km/h 95 % 12.7 mm
11:22 -15.4 °C -15.8 °C 34452.6 hPa NNE 2.6 km/h 18.2 km/h 95 % 7.62 mm
11:27 -15.4 °C -15.8 °C 34452.6 hPa ENE 12.9 km/h 12.9 km/h 95 % 7.62 mm
11:32 -15.3 °C -15.7 °C 34442.4 hPa NE 2.6 km/h 18.2 km/h 95 % 7.62 mm
11:37 -15.1 °C -15.4 °C 34442.4 hPa NE 5.1 km/h 18.2 km/h 96 % 7.62 mm
11:42 -14.9 °C -15.3 °C 34442.4 hPa East 10.3 km/h 18.2 km/h 95 % 7.62 mm
11:47 -14.8 °C -15.2 °C 34442.4 hPa NE 2.6 km/h 20.8 km/h 95 % 0 mm
11:52 -14.7 °C -15.2 °C 34442.4 hPa NNW 7.7 km/h 20.8 km/h 94 % 0 mm
11:57 -14.6 °C -15.1 °C 34442.4 hPa Calm   20.8 km/h 94 % 0 mm
12:02 -14.4 °C -14.9 °C 34442.4 hPa NNE 7.7 km/h 15.6 km/h 93 % 0 mm
12:12 -14 °C -14.6 °C 34442.4 hPa ENE 15.6 km/h 15.6 km/h 93 % 0 mm
12:17 -13.8 °C -14.5 °C 34442.4 hPa ENE 10.3 km/h 12.9 km/h 92 % 0 mm
12:22 -13.8 °C -14.6 °C 34442.4 hPa ENE 5.1 km/h 15.6 km/h 91 % 0 mm
12:27 -13.7 °C -14.4 °C 34442.4 hPa NNE 2.6 km/h 15.6 km/h 91 % 0 mm
12:32 -13.6 °C -14.4 °C 34442.4 hPa NNE 10.3 km/h 15.6 km/h 90 % 0 mm
12:37 -13.6 °C -14.4 °C 34442.4 hPa ENE 2.6 km/h 15.6 km/h 90 % 0 mm
12:42 -13.5 °C -14.3 °C 34442.4 hPa ENE 7.7 km/h 15.6 km/h 90 % 0 mm
12:52 -13.3 °C -14.2 °C 34428.8 hPa ENE 7.7 km/h 15.6 km/h 89 % 0 mm
12:57 -13.2 °C -14.2 °C 34428.8 hPa NE 2.6 km/h 15.6 km/h 88 % 0 mm
13:02 -13.1 °C -14.1 °C 34428.8 hPa NNE 7.7 km/h 15.6 km/h 89 % 0 mm
13:07 -13.1 °C -14.1 °C 34428.8 hPa NE 5.1 km/h 15.6 km/h 89 % 0 mm
13:12 -13.1 °C -14.1 °C 34428.8 hPa ENE 7.7 km/h 15.6 km/h 88 % 0 mm
13:17 -13 °C -14.1 °C 34428.8 hPa NE 5.1 km/h 15.6 km/h 88 % 0 mm
13:22 -12.9 °C -13.9 °C 34428.8 hPa ENE 10.3 km/h 15.6 km/h 89 % 0 mm
13:32 -12.8 °C -13.8 °C 34428.8 hPa ENE 5.1 km/h 12.9 km/h 88 % 0 mm
13:42 -12.4 °C -13.8 °C 34428.8 hPa East 15.6 km/h 18.2 km/h 84 % 0 mm
13:47 -12.1 °C -13.7 °C 34418.7 hPa ESE 7.7 km/h 23.3 km/h 82 % 0 mm
13:57 -11.9 °C -13.6 °C 34418.7 hPa SE 15.6 km/h 23.3 km/h 81 % 0 mm
14:02 -11.8 °C -13.6 °C 34418.7 hPa SE 10.3 km/h 20.8 km/h 80 % 0 mm
14:12 -11.5 °C -13.7 °C 34418.7 hPa ESE 5.1 km/h 33.6 km/h 77 % 0 mm
14:17 -11.4 °C -13.9 °C 34418.7 hPa East 28.5 km/h 33.6 km/h 74 % 0 mm
14:22 -11.4 °C -13.9 °C 34418.7 hPa ENE 23.3 km/h 33.6 km/h 74 % 0 mm
14:27 -11.3 °C -13.7 °C 34418.7 hPa East 18.2 km/h 33.6 km/h 75 % 0 mm
14:32 -11.3 °C -13.8 °C 34405.1 hPa ENE 23.3 km/h 33.6 km/h 74 % 0 mm
14:42 -11.3 °C -14 °C 34405.1 hPa ESE 7.7 km/h 36.2 km/h 72 % 0 mm
14:47 -11.2 °C -13.7 °C 34405.1 hPa ENE 15.6 km/h 36.2 km/h 74 % 0 mm
14:57 -11.2 °C -14 °C 34405.1 hPa East 10.3 km/h 25.9 km/h 71 % 0 mm
15:02 -11.1 °C -13.9 °C 34405.1 hPa East 15.6 km/h 25.9 km/h 71 % 0 mm
15:07 -11.1 °C -14.1 °C 34405.1 hPa ESE 18.2 km/h 33.6 km/h 70 % 0 mm
15:17 -11.1 °C -14.1 °C 34405.1 hPa East 12.9 km/h 33.6 km/h 69 % 0 mm
15:22 -10.9 °C -13.8 °C 34405.1 hPa East 12.9 km/h 25.9 km/h 70 % 0 mm
15:32 -10.7 °C -13.9 °C 34405.1 hPa ENE 10.3 km/h 23.3 km/h 68 % 0 mm
15:37 -10.7 °C -14.1 °C 34405.1 hPa East 20.8 km/h 28.5 km/h 66 % 0 mm
15:42 -10.6 °C -13.6 °C 34405.1 hPa SE 5.1 km/h 28.5 km/h 70 % 0 mm
15:47 -10.5 °C -13.8 °C 34405.1 hPa East 23.3 km/h 28.5 km/h 67 % 0 mm
15:52 -10.6 °C -13.8 °C 34405.1 hPa East 15.6 km/h 28.5 km/h 68 % 0 mm
15:57 -10.6 °C -13.9 °C 34405.1 hPa ESE 12.9 km/h 28.5 km/h 67 % 0 mm
16:02 -10.7 °C -13.9 °C 34405.1 hPa East 15.6 km/h 36.2 km/h 68 % 0 mm
16:07 -10.7 °C -14 °C 34405.1 hPa ESE 12.9 km/h 36.2 km/h 67 % 0 mm
16:12 -10.7 °C -14.1 °C 34405.1 hPa East 20.8 km/h 36.2 km/h 66 % 0 mm
16:17 -10.7 °C -14 °C 34405.1 hPa East 7.7 km/h 28.5 km/h 67 % 0 mm
16:22 -10.7 °C -14 °C 34405.1 hPa East 18.2 km/h 28.5 km/h 67 % 0 mm
16:32 -10.7 °C -14.2 °C 34405.1 hPa East 12.9 km/h 33.6 km/h 66 % 0 mm
16:42 -10.8 °C -14.2 °C 34405.1 hPa ENE 15.6 km/h 33.6 km/h 67 % 0 mm
16:52 -10.9 °C -14.2 °C 34418.7 hPa East 23.3 km/h 28.5 km/h 67 % 0 mm
16:57 -10.9 °C -14.2 °C 34405.1 hPa ESE 10.3 km/h 33.6 km/h 67 % 0 mm
17:02 -10.9 °C -14.3 °C 34405.1 hPa East 12.9 km/h 33.6 km/h 67 % 0 mm
17:07 -11 °C -14.2 °C 34418.7 hPa East 7.7 km/h 33.6 km/h 68 % 0 mm
17:12 -11 °C -14.3 °C 34418.7 hPa ENE 12.9 km/h 23.3 km/h 67 % 0 mm
17:17 -11 °C -14.2 °C 34418.7 hPa ESE 12.9 km/h 31.1 km/h 68 % 0 mm
17:22 -11.1 °C -14.2 °C 34418.7 hPa SSE 10.3 km/h 31.1 km/h 68 % 0 mm
17:32 -11.1 °C -14.3 °C 34418.7 hPa East 15.6 km/h 31.1 km/h 67 % 0 mm
17:42 -11.1 °C -14.4 °C 34428.8 hPa SE 15.6 km/h 20.8 km/h 67 % 0 mm
17:47 -11.1 °C -14.6 °C 34428.8 hPa East 18.2 km/h 28.5 km/h 66 % 0 mm
17:52 -11.2 °C -14.6 °C 34428.8 hPa East 15.6 km/h 28.5 km/h 66 % 0 mm
17:57 -11.2 °C -14.5 °C 34428.8 hPa East 12.9 km/h 28.5 km/h 67 % 0 mm
18:02 -11.2 °C -14.5 °C 34428.8 hPa East 12.9 km/h 25.9 km/h 67 % 0 mm
18:12 -11.3 °C -14.6 °C 34428.8 hPa East 10.3 km/h 25.9 km/h 67 % 0 mm
18:17 -11.3 °C -14.5 °C 34428.8 hPa ESE 18.2 km/h 25.9 km/h 68 % 0 mm
18:22 -11.4 °C -14.6 °C 34442.4 hPa ENE 7.7 km/h 25.9 km/h 68 % 0 mm
18:27 -11.5 °C -14.7 °C 34428.8 hPa ENE 20.8 km/h 25.9 km/h 68 % 0 mm
18:32 -11.4 °C -14.6 °C 34428.8 hPa ENE 10.3 km/h 28.5 km/h 68 % 0 mm
18:37 -11.5 °C -14.6 °C 34442.4 hPa East 12.9 km/h 28.5 km/h 69 % 0 mm
18:42 -11.6 °C -14.6 °C 34428.8 hPa East 18.2 km/h 28.5 km/h 69 % 0 mm
18:47 -11.5 °C -14.7 °C 34442.4 hPa East 15.6 km/h 44.1 km/h 68 % 0 mm
18:52 -11.4 °C -14.7 °C 34428.8 hPa ESE 20.8 km/h 44.1 km/h 67 % 0 mm
19:02 -11.6 °C -14.7 °C 34442.4 hPa ENE 18.2 km/h 38.8 km/h 69 % 0 mm
19:07 -11.8 °C -14.7 °C 34442.4 hPa ENE 20.8 km/h 33.6 km/h 70 % 0 mm
19:12 -11.9 °C -14.7 °C 34442.4 hPa ENE 12.9 km/h 25.9 km/h 71 % 0 mm
19:17 -11.9 °C -14.7 °C 34442.4 hPa ENE 18.2 km/h 31.1 km/h 71 % 0 mm
19:22 -12 °C -14.7 °C 34442.4 hPa East 23.3 km/h 31.1 km/h 72 % 0 mm
19:32 -11.9 °C -14.7 °C 34452.6 hPa ENE 23.3 km/h 25.9 km/h 71 % 0 mm
19:37 -11.9 °C -14.8 °C 34452.6 hPa East 15.6 km/h 25.9 km/h 70 % 0 mm
19:42 -11.9 °C -14.7 °C 34452.6 hPa ENE 18.2 km/h 25.9 km/h 71 % 0 mm
19:52 -12.1 °C -14.8 °C 34452.6 hPa ENE 18.2 km/h 25.9 km/h 71 % 0 mm
19:57 -12.1 °C -14.8 °C 34452.6 hPa East 10.3 km/h 25.9 km/h 72 % 0 mm
20:02 -12.2 °C -14.8 °C 34452.6 hPa ENE 10.3 km/h 25.9 km/h 73 % 0 mm
20:12 -12.4 °C -14.9 °C 34452.6 hPa ENE 12.9 km/h 20.8 km/h 73 % 0 mm
20:22 -12.4 °C -14.8 °C 34452.6 hPa ENE 10.3 km/h 25.9 km/h 74 % 0 mm
20:27 -12.5 °C -14.9 °C 34452.6 hPa ENE 12.9 km/h 25.9 km/h 74 % 0 mm
20:32 -12.6 °C -14.9 °C 34452.6 hPa ENE 12.9 km/h 20.8 km/h 75 % 0 mm
20:42 -12.7 °C -15 °C 34452.6 hPa NE 12.9 km/h 23.3 km/h 75 % 0 mm
20:47 -12.7 °C -15 °C 34452.6 hPa ENE 12.9 km/h 23.3 km/h 75 % 0 mm
20:52 -12.7 °C -15 °C 34452.6 hPa ENE 2.6 km/h 20.8 km/h 75 % 0 mm
20:57 -12.7 °C -15.1 °C 34462.7 hPa NNE 5.1 km/h 18.2 km/h 75 % 0 mm
21:02 -12.7 °C -15.1 °C 34462.7 hPa ENE 18.2 km/h 18.2 km/h 75 % 0 mm
21:12 -12.7 °C -15.1 °C 34462.7 hPa ENE 5.1 km/h 20.8 km/h 75 % 0 mm
21:17 -12.8 °C -15.1 °C 34462.7 hPa ENE 7.7 km/h 20.8 km/h 75 % 0 mm
21:27 -12.9 °C -15.2 °C 34462.7 hPa ENE 10.3 km/h 18.2 km/h 75 % 0 mm
21:32 -12.9 °C -15.2 °C 34462.7 hPa ENE 2.6 km/h 18.2 km/h 75 % 0 mm
21:42 -12.9 °C -15.3 °C 34462.7 hPa NE 5.1 km/h 18.2 km/h 75 % 0 mm
21:47 -12.9 °C -15.3 °C 34462.7 hPa ENE 12.9 km/h 18.2 km/h 75 % 0 mm
21:52 -12.9 °C -15.2 °C 34462.7 hPa ENE 7.7 km/h 18.2 km/h 76 % 0 mm
22:02 -12.9 °C -15.3 °C 34462.7 hPa NE 5.1 km/h 15.6 km/h 75 % 0 mm
Meteo18
Compliments of Weather Underground - 4 mb

Script developed by  Jim McMurry - jmcmurry@mwt.net Adapted for the template by  Wim van der Kuil - Leuven-Template.eu

You find our weather info also at:

European Weather Network

Weather Underground

Equipment we use:

Weather-station
Davis Vue

Weather-program
Meteobridge

Weather-server
Raspberry PI 2 B+

Provider
1 and 1

Davis Vue

Meteobridge

Raspberry PI 2 B+

1 and 1